Location: Newark
(35.2672°N, 80.7344°W)
Time: 14:14:59
(UTC+00:00)

deb Explorer IX - All Passes

Search period start: 20 January 2020 00:00
Search period end: 30 January 2020 00:00
Orbit: 548 x 1101 km, 38.8° (Epoch: 19 January)

Date Brightness Start Highest point End Pass type
(mag) Time Alt. Az. Time Alt. Az. Time Alt. Az.
20 Jan - 02:41:06 10° S 02:45:48 19° SE 02:50:35 10° E night (unlit)
20 Jan - 04:25:26 10° SW 04:32:34 57° SSE 04:39:31 10° ENE night (unlit)
20 Jan - 06:12:46 10° W 06:20:06 75° NNW 06:26:53 10° ENE night (unlit)
20 Jan - 08:00:57 10° WNW 08:08:01 67° N 08:14:15 10° E visible
20 Jan - 09:48:54 10° WNW 09:55:33 74° SSW 10:01:13 10° ESE visible
20 Jan - 11:37:32 10° W 11:42:01 22° SW 11:46:02 10° S visible
21 Jan - 02:18:40 10° S 02:23:23 19° SE 02:28:12 10° E night (unlit)
21 Jan - 04:03:02 10° SW 04:10:07 58° SSE 04:17:10 10° ENE night (unlit)
21 Jan - 05:50:20 10° W 05:57:41 75° NNW 06:04:36 10° ENE night (unlit)
21 Jan - 07:38:29 10° WNW 07:45:38 67° N 07:52:01 10° E visible
21 Jan - 09:26:25 10° WNW 09:33:12 73° SSW 09:39:02 10° ESE visible
21 Jan - 11:15:04 10° W 11:19:42 22° SW 11:23:53 10° S visible
22 Jan - 01:56:16 10° S 02:00:57 19° SE 02:05:48 10° E visible
22 Jan - 03:40:38 10° SW 03:47:39 59° SSE 03:54:47 10° ENE night (unlit)
22 Jan - 05:27:54 10° W 05:35:15 75° NNW 05:42:17 10° ENE night (unlit)
22 Jan - 07:16:00 10° WNW 07:23:13 68° N 07:29:46 10° E night (unlit)
22 Jan - 09:03:55 10° WNW 09:10:49 73° SSW 09:16:50 10° ESE visible
22 Jan - 10:52:34 10° W 10:57:22 23° SW 11:01:41 10° S visible
23 Jan - 01:33:52 10° S 01:38:32 19° SE 01:43:22 10° E visible
23 Jan - 03:18:14 10° SW 03:25:12 60° SSE 03:32:22 10° ENE night (unlit)
23 Jan - 05:05:28 10° W 05:12:48 74° NNW 05:19:56 10° ENE night (unlit)
23 Jan - 06:53:31 10° WNW 07:00:48 69° N 07:07:30 10° E night (unlit)
23 Jan - 08:41:25 10° WNW 08:48:27 72° SSW 08:54:36 10° ESE visible
23 Jan - 10:30:05 10° W 10:35:01 23° SW 10:39:28 10° S visible
24 Jan - 01:11:31 10° S 01:16:06 19° SE 01:20:55 10° E visible
24 Jan - 02:55:52 10° SW 03:02:44 60° SSE 03:09:56 10° ENE visible
24 Jan - 04:43:03 10° W 04:50:20 74° NNW 04:57:33 10° ENE night (unlit)
24 Jan - 06:31:03 10° WNW 06:38:22 69° N 06:45:11 10° E night (unlit)
24 Jan - 08:18:55 10° WNW 08:26:02 72° SSW 08:32:21 10° ESE visible
24 Jan - 10:07:34 10° W 10:12:39 23° SW 10:17:15 10° S visible
25 Jan - 00:49:10 10° S 00:53:40 19° SE 00:58:27 10° E visible
25 Jan - 02:33:30 10° SW 02:40:16 61° SSE 02:47:29 10° ENE visible
25 Jan - 04:20:39 10° W 04:27:52 74° N 04:35:09 10° ENE night (unlit)
25 Jan - 06:08:35 10° WNW 06:15:55 69° N 06:22:51 10° E night (unlit)
25 Jan - 07:56:24 10° WNW 08:03:36 71° SSW 08:10:04 10° ESE visible
25 Jan - 09:45:03 10° W 09:50:15 23° SW 09:54:59 10° S visible
26 Jan - 00:26:50 10° S 00:31:14 19° SE 00:35:56 10° E visible
26 Jan - 02:11:09 10° SW 02:17:49 61° SSE 02:25:00 10° ENE visible
26 Jan - 03:58:15 10° W 04:05:24 73° N 04:12:43 10° ENE night (unlit)
26 Jan - 05:46:07 10° WNW 05:53:27 70° N 06:00:30 10° E night (unlit)
26 Jan - 07:33:54 10° WNW 07:41:09 71° SSW 07:47:45 10° ESE night (unlit)
26 Jan - 09:22:32 10° W 09:27:50 24° SW 09:32:42 10° S visible
27 Jan - 00:04:31 10° S 00:08:49 19° SE 00:13:26 10° E visible
27 Jan - 01:48:49 10° SW 01:55:20 62° SSE 02:02:30 10° ENE visible
27 Jan - 03:35:52 10° W 03:42:55 73° N 03:50:16 10° ENE night (unlit)
27 Jan - 05:23:40 10° WNW 05:30:58 70° N 05:38:07 10° E night (unlit)
27 Jan - 07:11:24 10° WNW 07:18:41 70° SSW 07:25:25 10° ESE night (unlit)
27 Jan - 09:00:01 10° W 09:05:24 24° SW 09:10:24 10° S visible
27 Jan - 23:42:14 10° S 23:46:24 19° SE 23:50:53 10° E visible
28 Jan - 01:26:30 10° SW 01:32:53 62° SSE 01:39:59 10° ENE visible
28 Jan - 03:13:30 10° W 03:20:26 73° N 03:27:48 10° ENE visible
28 Jan - 05:01:14 10° WNW 05:08:29 70° N 05:15:42 10° E night (unlit)
28 Jan - 06:48:54 10° WNW 06:56:11 70° SSW 07:03:03 10° ESE night (unlit)
28 Jan - 08:37:30 10° W 08:42:57 24° SW 08:48:03 10° S night (unlit)
28 Jan - 23:19:56 10° S 23:23:58 19° SE 23:28:21 10° E visible
29 Jan - 01:04:11 10° SW 01:10:25 62° SSE 01:17:27 10° ENE visible
29 Jan - 02:51:09 10° W 02:57:58 72° N 03:05:18 10° ENE visible
29 Jan - 04:38:48 10° WNW 04:45:59 71° N 04:53:16 10° E night (unlit)
29 Jan - 06:26:25 10° WNW 06:33:42 69° SSW 06:40:40 10° SE night (unlit)
29 Jan - 08:14:58 10° W 08:20:29 24° SW 08:25:41 10° S night (unlit)
29 Jan - 22:57:40 10° S 23:01:33 18° SE 23:05:48 10° E daylight
